Location: Unspecified
(42.3650°N, 71.1030°W)
Time: 13:59:16
(UTC+00:00)

Courier 1B - Pass Details

Date: 04 July 2024
Orbit: 962 x 1209 km, 28.3° (Epoch: 25 July)

Event Time Altitude Azimuth Distance (km) Brightness Sun altitude
Rises 01:44:07 0° 238° (WSW) 3,631 10.6 -12.1°
Reaches altitude 10° 01:47:19 10° 224° (SW) 2,684 9.8 -12.5°
Maximum altitude 01:52:10 23° 175° (S) 1,939 8.6 -13.1°
Enters shadow 01:54:41 18° 145° (SE) 2,178 8.7 -13.4°
Drops below altitude 10° 01:57:07 10° 126° (SE) 2,733 - -13.7°
Sets 02:00:23 0° 112° (ESE) 3,714 - -14.1°
